Regional Weather Roundup
Issued by NWS

Home | Current Version | Previous Version | Text Only | Print | Product List | Glossary On
Versions: 1 2 3 4 5 6 7 8 9 10 11 12 13 14 15 16 17 18 19 20 21 22 23 24 25 26 27 28 29 30 31 32 33 34 35 36 37 38 39 40 41 42 43 44 45 46 47 48 49 50
000
ASUS45 KABQ 271310
RWRNM
WEATHER ROUNDUP FOR NEW MEXICO
NATIONAL WEATHER SERVICE ALBUQUERQUE NM
700 AM MDT WED AUG 27 2014

NOTE: "FAIR" MEANS FEW OR NO CLOUDS BELOW 12,000 FEET AGL WITH NO
       SIGNIFICANT WEATHER OR OBSTRUCTIONS TO VISION.

      THIS PRODUCT IS RELEASED AS TWO VERSIONS.  ONE VERSION NEAR
      THE TOP OF THE HOUR CONTAINING PRELIMINARY DATA FROM ALBUQUERQUE
      AND OTHER STATIONS.  A FINAL VERSION WITH ADDITIONAL DATA IS
      ISSUED ABOUT 10 MINUTES AFTER THE HOUR.

NMZ501-503-504-510>518-271400-
NORTHWEST PLATEAU/NORTHCENTRAL MOUNTAINS

CITY           SKY/WX    TMP DP  RH WIND       PRES   REMARKS
FARMINGTON     MOCLDY    54  52  93 CALM      30.31R
LOS ALAMOS     MOCLDY    54  54 100 CALM      30.37R
SANTA FE       MOCLDY    56  55  97 W3        30.32R
TAOS           MOCLDY    54  50  87 CALM      30.38R
ANGEL FIRE     CLOUDY    51  47  84 SE3       30.42R

$$
NMZ402-403-502-505>509-271400-
WESTCENTRAL MOUNTAINS/SOUTHWEST MOUNTAINS

CITY           SKY/WX    TMP DP  RH WIND       PRES   REMARKS
GALLUP         CLOUDY    46  45  96 W3        30.36R
SILVER CITY    PTCLDY    59  55  88 N6        30.28R

$$
NMZ407-409-411-412-271400-
SOUTHERN DESERTS

CITY           SKY/WX    TMP DP  RH WIND       PRES   REMARKS
LORDSBURG      FAIR      61  61 100 S5        30.20R
DEMING         CLEAR     63  60  90 SE6       30.21R
LAS CRUCES     CLOUDY    68  63  83 N3        30.21S
HOLLOMAN AFB   MOCLDY    65  65 100 NE5       30.18F
ALAMOGORDO     CLOUDY    66  63  88 N8        30.20S
T OR C         PTCLDY    61  60  97 N8        30.24R

$$
NMZ519>523-271400-
CENTRAL VALLEYS/CENTRAL HIGHLANDS

CITY           SKY/WX    TMP DP  RH WIND       PRES   REMARKS
ALBUQUERQUE    PTCLDY    60  57  89 SW3       30.30R
DOUBLE EAGLE   PTCLDY    55  54  94 CALM      30.31S
MORIARTY ARPT  FAIR      55  53  93 CALM      30.34R
CLINES CORNERS CLOUDY    55  54  96 W12       30.34R
BELEN          FAIR      56  55  99 N3        30.29S
SOCORRO        MOCLDY    59  58  97 CALM      30.27R

$$
NMZ524>526-539-540-271400-
SOUTHCENTRAL MOUNTAINS

CITY           SKY/WX    TMP DP  RH WIND       PRES   REMARKS
RUIDOSO        CLOUDY    55  54  94 NW5       30.38S

$$
NMZ527>531-271400-
NORTHEAST HIGHLANDS/NORTHEAST PLAINS

CITY           SKY/WX    TMP DP  RH WIND       PRES   REMARKS
LAS VEGAS      MOCLDY    54  53  97 S8        30.32R
RATON          CLOUDY    59  58  96 SW6       30.25R
CLAYTON        CLOUDY    64  60  87 SW9       30.23R

$$
NMZ532>537-271400-
EASTCENTRAL PLAINS

CITY           SKY/WX    TMP DP  RH WIND       PRES   REMARKS
TUCUMCARI        N/A     68  63  84 NW6       30.18R
CANNON AFB     MOCLDY    66  61  82 NW1       30.22R
CLOVIS AIRPORT   N/A     66  61  82 CALM      30.24R

$$
NMZ028-029-538-271400-
SOUTHEAST PLAINS

CITY           SKY/WX    TMP DP  RH WIND       PRES   REMARKS
ROSWELL        MOCLDY    70  63  78 N7        30.17R
CARLSBAD       MOCLDY    72  64  76 NW7       30.12R
HOBBS          PTCLDY    68  63  83 CALM      30.15R


$$


USA.gov is the U.S. government's official web portal to all federal, state and local government web resources and services.